Tracking 22993 objects as of 12-May-2021
HD Live streaming from Space Station
objects crossing your sky now

PERSEUS M1

Track PERSEUS M1 now!
10-day predictions
PERSEUS M1 is classified as:


NORAD ID: 40039
Int'l Code: 2014-033AF
Perigee: 607.4 km
Apogee: 626.0 km
Inclination: 97.9 °
Period: 96.9 minutes
Semi major axis: 6987 km
RCS: Unknown
Launch date: June 19, 2014
Source: Commonwealth of Independent States (former USSR) (CIS)
Launch site: Orenburg, Russia (OREN)

Uplink (MHz):
Downlink (MHz): 400.160/400.170
Beacon (MHz):
Mode: 9600bps GFSK
Call sign: CQ
Status:

aabbcc
Your satellite tracking list
Your tracking list is empty




NASA's NSSDC Master Catalog

Two Line Element Set (TLE):
1 40039U 14033AF  21131.35196514  .00000129  00000-0  20910-4 0  9997
2 40039  97.8852  49.6410 0013278 320.5055  39.5191 14.86283252373789
Source of the keplerian elements: AFSPC